Copper Mountain, CO

3:52 PM MDT on April 25, 2017 (GMT -0600)
Copper Mountain

Weather History for KCCU - March, 2014

Change the Weather History Date:

Friday, March 21, 2014

  Actual Average Record
Temperature  
Mean Temperature 28 °F -  
Max Temperature 33 °F - 95 °F (2016)
Min Temperature 23 °F - 5 °F (2006)
Degree Days  
Heating Degree Days 37    
Month to date heating degree days  
Cooling Degree Days 0    
Month to date cooling degree days  
Moisture  
Dew Point 1 °F    
Average Humidity 35    
Maximum Humidity 80    
Minimum Humidity 17    
Precipitation  
Precipitation 0.01 in - 0.47 in (2003)
Sea Level Pressure  
Sea Level Pressure 30.06 in    
Wind  
Wind Speed 15 mph (WSW)    
Max Wind Speed 25 mph    
Max Gust Speed 37 mph    
Visibility 9 miles    
Events Snow    
T = Trace of Precipitation, MM = Missing Value Source: NWS Daily Summary

Daily Weather History Graph

Daily Weather History Graph

Search for Another Location

Airport or City:

Trip Planner

Search our weather history database for the weather conditions in past years. The results will help you decide how hot, cold, wet, or windy it might be!

Date:

Astronomy

Mar. 21, 2014 Rise Set
Actual Time 7:06 AM MDT 7:17 PM MDT
Civil Twilight 6:39 AM MDT 7:44 PM MDT
Nautical Twilight 6:08 AM MDT 8:15 PM MDT
Astronomical Twilight 5:36 AM MDT 8:47 PM MDT
Moon No Moon Rise 10:01 AM MDT (3/21)
Length of Visible Light 13h 05m
Length of Day
12h 11m
Waning Gibbous, 75% of the Moon is Illuminated
Mar 21
Waning Gibbous
Mar 23
Last Quarter
Mar 30
New
Apr 7
First Quarter
Apr 15
Full

Hourly Weather History & Observations

Time (MDT) Temp. Windchill Dew Point Humidity Pressure Visibility Wind Dir Wind Speed Gust Speed Precip Events Conditions
12:16 AM 24.8 °F 14.6 °F -4.0 °F 28% 30.08 in 10.0 mi WSW 10.4 mph 16.1 mph N/A   Clear
12:36 AM 24.8 °F 12.4 °F -4.0 °F 28% 30.07 in 10.0 mi WSW 15.0 mph - N/A   Clear
12:56 AM 24.8 °F 12.9 °F -4.0 °F 28% 30.07 in 10.0 mi WSW 13.8 mph - N/A   Clear
1:16 AM 24.8 °F 13.4 °F -5.8 °F 26% 30.07 in 10.0 mi WSW 12.7 mph 17.3 mph N/A   Clear
1:36 AM 24.8 °F 12.4 °F -5.8 °F 26% 30.06 in 10.0 mi WSW 15.0 mph 20.7 mph N/A   Clear
1:40 AM 24.8 °F 14.0 °F -5.8 °F 26% 30.07 in 10.0 mi WSW 11.5 mph - N/A   Clear
3:16 AM 23.0 °F 8.7 °F -7.6 °F 26% 30.05 in 10.0 mi West 18.4 mph 23.0 mph N/A   Clear
3:36 AM 23.0 °F 9.6 °F -7.6 °F 26% 30.05 in 10.0 mi West 16.1 mph 19.6 mph N/A   Clear
3:56 AM 23.0 °F 9.2 °F -7.6 °F 26% 30.04 in 10.0 mi WSW 17.3 mph 24.2 mph N/A   Clear
4:16 AM 24.8 °F 9.6 °F -5.8 °F 26% 30.03 in 10.0 mi WSW 23.0 mph 31.1 mph N/A   Clear
4:36 AM 24.8 °F 11.9 °F -5.8 °F 26% 30.03 in 10.0 mi West 16.1 mph 26.5 mph N/A   Clear
4:56 AM 23.0 °F 7.6 °F -5.8 °F 28% 30.03 in 10.0 mi West 21.9 mph 31.1 mph N/A   Clear
5:16 AM 23.0 °F 7.2 °F -5.8 °F 28% 30.03 in 10.0 mi West 23.0 mph 28.8 mph N/A   Clear
5:36 AM 23.0 °F 7.2 °F -4.0 °F 31% 30.03 in 10.0 mi West 23.0 mph 29.9 mph N/A   Clear
5:56 AM 23.0 °F 7.6 °F -4.0 °F 31% 30.03 in 10.0 mi West 21.9 mph 36.8 mph N/A   Clear
6:16 AM 23.0 °F 8.7 °F -4.0 °F 31% 30.04 in 10.0 mi West 18.4 mph 31.1 mph N/A   Clear
6:36 AM 23.0 °F 10.6 °F -4.0 °F 31% 30.05 in 10.0 mi West 13.8 mph 17.3 mph N/A   Clear
6:56 AM 23.0 °F 9.6 °F -2.2 °F 33% 30.05 in 10.0 mi West 16.1 mph 21.9 mph N/A   Clear
7:16 AM 23.0 °F 8.7 °F -2.2 °F 33% 30.05 in 10.0 mi West 18.4 mph 21.9 mph N/A   Clear
7:36 AM 23.0 °F 8.7 °F -0.4 °F 36% 30.05 in 10.0 mi West 18.4 mph 23.0 mph N/A   Clear
7:56 AM 23.0 °F 11.7 °F -0.4 °F 36% 30.06 in 10.0 mi West 11.5 mph 19.6 mph N/A   Clear
8:16 AM 23.0 °F 11.1 °F -0.4 °F 36% 30.06 in 10.0 mi West 12.7 mph 18.4 mph N/A   Clear
8:36 AM 24.8 °F 12.9 °F 1.4 °F 36% 30.06 in 10.0 mi West 13.8 mph 20.7 mph N/A   Clear
8:56 AM 24.8 °F 11.5 °F 1.4 °F 36% 30.06 in 10.0 mi West 17.3 mph 20.7 mph N/A   Clear
9:16 AM 24.8 °F 10.3 °F 1.4 °F 36% 30.06 in 10.0 mi West 20.7 mph 26.5 mph N/A   Clear
9:36 AM 26.6 °F 12.4 °F 1.4 °F 34% 30.07 in 10.0 mi West 21.9 mph - N/A   Clear
9:56 AM 26.6 °F 13.4 °F -0.4 °F 31% 30.07 in 10.0 mi West 18.4 mph 23.0 mph N/A   Clear
10:16 AM 28.4 °F 13.8 °F -0.4 °F 29% 30.07 in 10.0 mi West 25.3 mph 29.9 mph N/A   Clear
10:36 AM 28.4 °F 16.2 °F -0.4 °F 29% 30.07 in 10.0 mi WNW 17.3 mph 26.5 mph N/A   Clear
10:56 AM 30.2 °F 19.8 °F -0.4 °F 27% 30.08 in 10.0 mi West 13.8 mph 21.9 mph N/A   Clear
11:16 AM 32.0 °F 20.1 °F -0.4 °F 25% 30.08 in 10.0 mi WNW 19.6 mph - N/A   Clear
11:36 AM 30.2 °F 17.4 °F -4.0 °F 23% 30.08 in 10.0 mi West 20.7 mph 25.3 mph N/A   Clear
11:56 AM 32.0 °F 21.6 °F -2.2 °F 23% 30.08 in 10.0 mi WNW 15.0 mph 27.6 mph N/A   Clear
12:16 PM 32.0 °F 22.1 °F -5.8 °F 20% 30.08 in 10.0 mi WNW 13.8 mph 20.7 mph N/A   Clear
12:36 PM 32.0 °F 22.1 °F -5.8 °F 20% 30.08 in 10.0 mi West 13.8 mph 26.5 mph N/A   Clear
12:56 PM 32.0 °F 20.1 °F -7.6 °F 18% 30.08 in 10.0 mi West 19.6 mph 25.3 mph N/A   Clear
1:16 PM 32.0 °F 22.1 °F -7.6 °F 18% 30.08 in 10.0 mi West 13.8 mph 23.0 mph N/A   Clear
1:36 PM 33.8 °F 23.5 °F -7.6 °F 17% 30.07 in 10.0 mi West 16.1 mph 20.7 mph N/A   Clear
1:56 PM 33.8 °F 25.8 °F -4.0 °F 20% 30.06 in 10.0 mi West 10.4 mph 23.0 mph N/A   Scattered Clouds
2:16 PM 33.8 °F 23.9 °F -4.0 °F 20% 30.06 in 10.0 mi West 15.0 mph - N/A   Mostly Cloudy
2:36 PM 33.8 °F 25.3 °F -4.0 °F 20% 30.06 in 10.0 mi West 11.5 mph - 0.01 in   Overcast
2:56 PM 33.8 °F 25.3 °F -0.4 °F 23% 30.06 in 10.0 mi West 11.5 mph 17.3 mph N/A   Overcast
3:16 PM 33.8 °F 29.6 °F -0.4 °F 23% 30.05 in 10.0 mi SW 4.6 mph - N/A   Overcast
3:36 PM 33.8 °F 27.7 °F -2.2 °F 22% 30.05 in 10.0 mi SW 6.9 mph 23.0 mph N/A   Overcast
3:56 PM 32.0 °F 19.8 °F -4.0 °F 21% 30.05 in 10.0 mi West 20.7 mph 26.5 mph N/A   Overcast
4:16 PM 32.0 °F 23.6 °F -2.2 °F 23% 30.06 in 10.0 mi WSW 10.4 mph 20.7 mph N/A   Overcast
4:36 PM 32.0 °F 19.8 °F -0.4 °F 25% 30.05 in 10.0 mi WSW 20.7 mph - N/A   Overcast
4:56 PM 32.0 °F 21.6 °F -0.4 °F 25% 30.05 in 10.0 mi WSW 15.0 mph 24.2 mph N/A   Overcast
5:16 PM 32.0 °F 20.5 °F 1.4 °F 27% 30.05 in 10.0 mi West 18.4 mph 26.5 mph N/A   Overcast
5:36 PM 30.2 °F 19.8 °F 1.4 °F 29% 30.06 in 10.0 mi WSW 13.8 mph 18.4 mph N/A   Overcast
5:56 PM 28.4 °F 22.2 °F 5.0 °F 37% 30.06 in 10.0 mi SW 5.8 mph 18.4 mph N/A   Overcast
6:16 PM 28.4 °F 19.1 °F 3.2 °F 34% 30.06 in 10.0 mi SW 10.4 mph - N/A   Overcast
6:36 PM 30.2 °F 20.8 °F 3.2 °F 32% 30.06 in 10.0 mi SW 11.5 mph - N/A   Overcast
6:56 PM 28.4 °F 19.7 °F 5.0 °F 37% 30.06 in 10.0 mi SSW 9.2 mph 17.3 mph N/A   Overcast
7:16 PM 28.4 °F 19.1 °F 5.0 °F 37% 30.07 in 10.0 mi SSW 10.4 mph 17.3 mph N/A   Overcast
7:36 PM 28.4 °F 18.5 °F 6.8 °F 40% 30.06 in 10.0 mi SSW 11.5 mph 17.3 mph N/A   Overcast
7:56 PM 28.4 °F 18.5 °F 8.6 °F 43% 30.07 in 10.0 mi SW 11.5 mph 21.9 mph N/A   Overcast
8:16 PM 28.4 °F 19.7 °F 8.6 °F 43% 30.07 in 10.0 mi SSW 9.2 mph 16.1 mph N/A   Overcast
8:36 PM 26.6 °F 16.8 °F 10.4 °F 51% 30.07 in 5.0 mi SSW 10.4 mph - N/A Snow Light Snow
8:56 PM 26.6 °F 16.2 °F 12.2 °F 55% 30.07 in 10.0 mi South 11.5 mph 18.4 mph N/A   Overcast
9:16 PM 26.6 °F 14.3 °F 12.2 °F 55% 30.07 in 10.0 mi South 16.1 mph 24.2 mph N/A   Overcast
9:36 PM 24.8 °F 10.7 °F 14.0 °F 64% 30.07 in 3.0 mi South 19.6 mph 25.3 mph N/A Snow Light Snow
9:56 PM 24.8 °F 10.7 °F 17.6 °F 74% 30.07 in 1.8 mi South 19.6 mph 23.0 mph N/A Snow Light Snow
10:16 PM 24.8 °F 14.0 °F 19.4 °F 80% 30.07 in 2.0 mi South 11.5 mph 23.0 mph N/A Snow Light Snow
10:36 PM 24.8 °F 17.9 °F 17.6 °F 74% 30.07 in 5.0 mi SW 5.8 mph - N/A Snow Light Snow
10:56 PM 24.8 °F 16.1 °F 17.6 °F 74% 30.07 in 2.0 mi SSW 8.1 mph - N/A Snow Light Snow
11:16 PM 24.8 °F 14.6 °F 19.4 °F 80% 30.07 in 1.0 mi South 10.4 mph - N/A Snow Light Snow
11:36 PM 24.8 °F 14.6 °F 19.4 °F 80% 30.06 in 1.5 mi South 10.4 mph - N/A Snow Light Snow
11:56 PM 24.8 °F 20.5 °F 17.6 °F 74% 30.06 in 2.0 mi SW 3.5 mph - N/A Snow Light Snow